PEGASUS DEB

Satellite information

Favourite Embed

Satellite Type and Status

DEBRISIN ORBIT

Key statistics

Satellite PEGASUS DEB at a glance.

Uptime

11532

Days in orbit

Revolutions

≈ 14.1

Per day

Orbit

LEO

Low Earth Orbit

Inclination

81.4

Latest

Satellite identification and parameters

Extended collection of information and parameters for PEGASUS DEB.

Object identification

Identified? True

Debris? True

Object name: PEGASUS DEB

International designator: 1994-029YW

Object number (NORAD): 24594

Object ID (CCSDS): 24594

Country: UNITED STATES OF AMERICA (US)

Current information (Y/N): Y

RCS size: SMALL

Orbital parameters

Period: 102.081 minutes

Inclination: 81.4474 deg

SMA: 7235.287 km

Apoapsis: 1184.389 km

Periapsis: 529.916 km

RAAN: 176.267 deg

Eccentricy: 0.0452278

Argument of periapsis: 139.6545 deg

Mean anomaly: 223.9128 deg

Mean motion: 14.10649382 rev/day

Mean motion (dot): 0.00009061 rev/day2

B* drag term: 0.0019146 1/REarth

Two-line elements (TLE)

Creation date: Dec. 12, 2025, 7:16 a.m.

Reference frame: TEME

Reference center: EARTH

Epoch: Dec. 11, 2025, 10:57 p.m. UTC

TLE line 0: 0 PEGASUS DEB

TLE line 1: 1 24594U 94029YW 25345.95647426 .00009061 00000-0 19146-2 0 9999

TLE line 2: 2 24594 81.4474 176.2670 0452278 139.6545 223.9128 14.10649382481237

Live tracking on map

Real-time ground track for satellite PEGASUS DEB.

In-orbit conjunctions

A list of the most updated potential collisions computed for object PEGASUS DEB.

Target Orbit TCA Probability of collision Miss distance Type
CZ-4 DEB SSO 2024-11-11 04:42:34 0.005587966 36.0 (m) DEBRIS
COSMOS 2389 LEO 2024-11-08 05:48:48 0.0001598811 696.0 (m) PAYLOAD

Associated space launch

PEGASUS DEB was lifted into orbit during the mission ‘Pegasus HAPS | Space Test Experiments Platform 2 (STEP-2)’, on board a Pegasus HAPS space rocket.

The launch took place on May 19, 1994, 5:03 p.m. from Edwards Air Force Base.

For more information about the launch, click the button.

Launch to space Pegasus HAPS | Space Test Experiments Platform 2 (STEP-2)
Pegasus HAPS | Space Test Experiments Platform 2 (STEP-2)

Agency: N/A

Status: Launch Successful

Launch date: May 19, 1994, 5:03 p.m. UTC

Rocket: Pegasus HAPS

Launch pad: Edwards Air Force Base

Location: Air launch to orbit

...

Latest news about this satellite

There are no fresh news available about this satellite. Check back as we update our databases every day.


Newsletter sign-up

Weekly statistics, charts and insights to help you stay on top of the space industry.